Location: Bazinghen
(50.8246°N, 1.6616°E)
Time: 17:49:14
(UTC+00:00)

Cosmos 2154 Rocket - Pass Details

Date: 09 April 2020
Orbit: 965 x 997 km, 82.9° (Epoch: 01 June)

Event Time Altitude Azimuth Distance (km) Brightness Sun altitude
Rises 19:21:36 0° 350° (N) 3,732 7.5 -7.1°
Reaches altitude 10° 19:24:09 10° 352° (N) 2,777 6.8 -7.5°
Maximum altitude 19:30:33 80° 80° (E) 1,016 4.0 -8.4°
Drops below altitude 10° 19:36:52 10° 167° (SSE) 2,743 6.0 -9.3°
Sets 19:39:22 0° 169° (SSE) 3,683 6.7 -9.7°
